CW8812 Weather Reports


Display with metric or nautical units.
time (UTC)temp
F
wind
direction
speed
MPH
gust
MPH
rain 1hr
in
rain 24hr
in
rain mn
in
humidity
%
barometer
mb
20260506172517 64 225 1.0 5.0 0.00 0.00 0.00 83 1005.8
20260506171516 64 225 1.0 5.0 0.00 0.00 0.00 83 1005.8
20260506170518 63 225 1.0 6.0 0.00 0.00 0.00 81 1005.9
20260506165516 63 225 3.0 7.0 0.00 0.00 0.00 80 1006.4
20260506164516 63 225 1.0 7.0 0.00 0.00 0.00 80 1006.4
20260506163536 63 203 4.0 8.0 0.00 0.00 0.00 79 1006.8
20260506162516 63 180 2.0 6.0 0.00 0.00 0.00 78 1006.8
20260506161516 63 225 4.0 11.0 0.00 0.00 0.00 78 1006.8
20260506160536 64 203 2.0 5.0 0.00 0.00 0.00 78 1006.9
20260506155516 64 225 3.0 10.0 0.00 0.00 0.00 77 1007.0
20260506154517 64 203 4.0 10.0 0.00 0.00 0.00 76 1007.0
20260506153516 66 225 2.0 7.0 0.00 0.00 0.00 75 1007.1
20260506152536 66 203 2.0 8.0 0.00 0.00 0.00 74 1007.0
20260506151616 66 203 2.0 6.0 0.00 0.00 0.00 73 1007.0
20260506150516 66 203 2.0 8.0 0.00 0.00 0.00 73 1007.0
20260506145516 66 203 2.0 7.0 0.00 0.00 0.00 75 1007.3
20260506144515 66 203 1.0 7.0 0.00 0.00 0.00 75 1007.3
20260506143515 66 203 2.0 6.0 0.00 0.00 0.00 74 1007.4
20260506142515 66 225 2.0 6.0 0.00 0.00 0.00 74 1007.4
20260506141516 66 203 2.0 8.0 0.00 0.00 0.00 73 1007.4
20260506140515 65 225 1.0 6.0 0.00 0.00 0.00 76 1007.4
20260506135516 64 225 2.0 7.0 0.00 0.00 0.00 78 1007.4
20260506134515 63 225 2.0 6.0 0.00 0.00 0.00 79 1007.4
20260506133516 64 225 2.0 8.0 0.00 0.00 0.00 77 1007.5
20260506132517 65 225 2.0 6.0 0.00 0.00 0.00 77 1007.7
20260506131517 65 225 2.0 7.0 0.00 0.00 0.00 77 1007.7
20260506130518 65 225 2.0 6.0 0.00 0.00 0.00 77 1007.7
20260506125517 64 203 2.0 7.0 0.00 0.00 0.00 79 1007.8
20260506124518 63 225 3.0 8.0 0.00 0.00 0.00 81 1007.8
20260506123538 62 225 2.0 6.0 0.00 0.00 0.00 82 1007.8
20260506122520 62 225 2.0 7.0 0.00 0.00 0.00 83 1007.9
20260506121604 62 225 1.0 5.0 0.00 0.00 0.00 84 1007.9
20260506120519 61 225 4.0 8.0 0.00 0.00 0.00 84 1007.6
20260506115517 61 225 2.0 6.0 0.00 0.00 0.00 85 1007.6
20260506114518 61 225 3.0 7.0 0.00 0.00 0.00 86 1007.6
20260506113517 60 225 3.0 7.0 0.00 0.00 0.00 87 1007.6
20260506112517 60 225 3.0 7.0 0.00 0.00 0.00 88 1007.8
20260506111517 60 225 1.0 3.0 0.00 0.00 0.00 89 1007.8
20260506110517 59 0.0 3.0 0.00 0.00 0.00 89 1007.7
20260506105517 59 225 2.0 4.0 0.00 0.00 0.00 89 1007.6
20260506104541 59 225 2.0 5.0 0.00 0.00 0.00 90 1007.6
20260506103517 59 225 2.0 6.0 0.00 0.00 0.00 90 1007.5
20260506102557 58 225 1.0 6.0 0.00 0.00 0.00 90 1007.5
20260506101517 58 225 1.0 7.0 0.00 0.00 0.00 90 1007.5
20260506100518 58 225 2.0 6.0 0.00 0.00 0.00 90 1007.5
20260506095518 58 225 1.0 6.0 0.00 0.00 0.00 90 1007.3
20260506094517 58 203 2.0 8.0 0.00 0.00 0.00 90 1007.3
20260506093517 58 225 1.0 5.0 0.00 0.00 0.00 90 1007.3
20260506092517 58 225 1.0 3.0 0.00 0.00 0.00 90 1007.5
20260506091538 58 203 2.0 5.0 0.00 0.00 0.00 89 1007.5
20260506090517 58 203 2.0 7.0 0.00 0.00 0.00 89 1007.6
20260506085523 58 203 3.0 7.0 0.00 0.00 0.00 89 1007.9
20260506084538 58 225 3.0 6.0 0.00 0.00 0.00 89 1007.9
20260506083517 58 203 2.0 6.0 0.00 0.00 0.00 89 1007.9
20260506082517 59 203 2.0 10.0 0.00 0.00 0.00 89 1007.9
20260506081517 59 203 1.0 4.0 0.00 0.00 0.00 89 1007.9
20260506080517 59 225 1.0 5.0 0.00 0.00 0.00 89 1007.8
20260506073517 59 225 1.0 6.0 0.00 0.00 0.00 88 1007.9
20260506072518 59 0.0 1.0 0.00 0.00 0.00 88 1007.9
20260506071518 59 225 1.0 3.0 0.00 0.00 0.00 87 1007.9
20260506070517 59 225 1.0 6.0 0.00 0.00 0.00 87 1008.0
20260506062517 59 248 2.0 10.0 0.00 0.00 0.00 86 1008.0
20260506061516 59 225 2.0 5.0 0.00 0.00 0.00 85 1008.0
20260506060538 59 225 2.0 8.0 0.00 0.00 0.00 85 1008.1
20260506050517 60 225 3.0 10.0 0.00 0.00 0.00 82 1008.5
20260506044517 60 225 3.0 9.0 0.00 0.00 0.00 82 1008.5
20260506043536 60 225 3.0 9.0 0.00 0.00 0.00 81 1008.4
20260506042516 60 225 3.0 10.0 0.00 0.00 0.00 81 1008.5
20260506041538 60 203 3.0 6.0 0.00 0.00 0.00 81 1008.5
20260506040518 60 225 3.0 11.0 0.00 0.00 0.00 80 1008.4
20260506035517 61 225 3.0 10.0 0.00 0.00 0.00 80 1008.4
20260506034516 61 225 2.0 6.0 0.00 0.00 0.00 80 1008.4
20260506033519 61 225 3.0 8.0 0.00 0.00 0.00 80 1008.6
20260506032517 61 225 3.0 8.0 0.00 0.00 0.00 80 1008.6
20260506031517 61 225 2.0 6.0 0.00 0.00 0.00 79 1008.6
20260506030518 61 248 1.0 4.0 0.00 0.00 0.00 79 1008.6
20260506025517 61 225 3.0 7.0 0.00 0.00 0.00 78 1008.6
20260506024517 61 203 3.0 10.0 0.00 0.00 0.00 77 1008.6
20260506023517 62 225 3.0 7.0 0.00 0.00 0.00 77 1008.5
20260506022518 62 225 3.0 10.0 0.00 0.00 0.00 76 1008.6
20260506021517 62 203 4.0 11.0 0.00 0.00 0.00 76 1008.6
20260506020517 62 225 4.0 12.0 0.00 0.00 0.00 76 1008.5
20260506015526 61 225 4.0 10.0 0.00 0.00 0.00 76 1008.5
20260506014517 61 248 3.0 7.0 0.00 0.00 0.00 77 1008.5
20260506013517 61 225 5.0 9.0 0.00 0.00 0.00 77 1008.3
20260506012517 61 203 5.0 12.0 0.00 0.00 0.00 78 1008.3
20260506011538 60 225 3.0 10.0 0.00 0.00 0.00 79 1008.3
20260506010517 61 225 3.0 10.0 0.00 0.00 0.00 78 1008.1
20260506005517 61 225 3.0 10.0 0.00 0.00 0.00 78 1008.0
20260506004517 61 225 6.0 12.0 0.00 0.00 0.00 77 1008.0
20260506003517 61 225 4.0 11.0 0.00 0.00 0.00 77 1008.0
20260506002517 62 203 3.0 8.0 0.00 0.00 0.00 77 1008.0
20260506001517 62 225 3.0 8.0 0.00 0.00 0.00 76 1008.0
20260506000537 62 225 4.0 10.0 0.00 0.00 0.00 75 1007.9
20260505235517 63 225 3.0 9.0 0.00 0.00 0.00 73 1007.7
20260505234518 64 203 2.0 9.0 0.00 0.00 0.00 71 1007.7
20260505233517 64 225 4.0 11.0 0.00 0.00 0.00 70 1007.5
20260505232518 65 203 6.0 12.0 0.00 0.00 0.00 68 1007.3
20260505231540 65 203 6.0 16.0 0.00 0.00 0.00 67 1007.3
20260505230517 66 225 7.0 16.0 0.00 0.00 0.00 65 1007.3
20260505225517 66 225 5.0 11.0 0.00 0.00 0.00 64 1007.2
20260505224518 66 225 5.0 13.0 0.00 0.00 0.00 63 1007.2
20260505223518 66 225 4.0 12.0 0.00 0.00 0.00 62 1007.1
20260505222517 67 225 5.0 12.0 0.00 0.00 0.00 62 1007.3
20260505221517 66 225 5.0 12.0 0.00 0.00 0.00 62 1007.3
20260505220518 67 203 5.0 14.0 0.00 0.00 0.00 63 1007.0
20260505215517 67 225 5.0 13.0 0.00 0.00 0.00 62 1007.0
20260505214516 67 203 5.0 12.0 0.00 0.00 0.00 62 1007.0
20260505213518 67 203 6.0 11.0 0.00 0.00 0.00 62 1006.8
20260505212517 67 225 4.0 11.0 0.00 0.00 0.00 61 1006.8
20260505211518 67 203 6.0 13.0 0.00 0.00 0.00 61 1006.8
20260505210521 68 203 6.0 18.0 0.00 0.00 0.00 61 1006.8
20260505205517 69 248 5.0 12.0 0.00 0.00 0.00 60 1006.7
20260505204518 69 225 4.0 13.0 0.00 0.00 0.00 58 1006.7
20260505203516 69 203 5.0 14.0 0.00 0.00 0.00 59 1006.7
20260505202516 69 225 4.0 14.0 0.00 0.00 0.00 58 1006.8
20260505201516 69 203 6.0 12.0 0.00 0.00 0.00 58 1006.8
20260505200517 69 225 7.0 14.0 0.00 0.00 0.00 59 1006.8
20260505195516 70 203 6.0 14.0 0.00 0.00 0.00 58 1007.0
20260505194516 70 225 5.0 12.0 0.00 0.00 0.00 57 1007.0
20260505193516 70 203 5.0 13.0 0.00 0.00 0.00 57 1007.3
20260505192516 70 203 5.0 13.0 0.00 0.00 0.00 57 1007.5
20260505191516 70 203 5.0 11.0 0.00 0.00 0.00 58 1007.5
20260505190516 70 203 4.0 10.0 0.00 0.00 0.00 59 1007.5
20260505185516 71 225 5.0 13.0 0.00 0.00 0.00 58 1007.5
20260505184516 72 225 4.0 7.0 0.00 0.00 0.00 57 1007.5
20260505183516 73 225 4.0 9.0 0.00 0.00 0.00 55 1007.5
20260505182516 73 203 3.0 7.0 0.00 0.00 0.00 55 1007.7
20260505181536 73 225 3.0 7.0 0.00 0.00 0.00 55 1007.7
20260505180516 73 225 3.0 10.0 0.00 0.00 0.00 55 1007.9
20260505175516 73 225 1.0 3.0 0.00 0.00 0.00 53 1008.0
20260505174516 73 203 3.0 11.0 0.00 0.00 0.00 54 1008.0
20260505173516 73 0.0 0.0 0.00 0.00 0.00 56 1008.0